Date String (YYYY-MM-DD hh:mm:ss) UTC,Instrument flags,absolute air pressure of the measurement (hPa),sample flow rate (lpm),inlet stack bypass flow (lpm),air temperature of the measurement (°C),ambient temperature measured by the external sensor (°C),aerosol sample conditioner tube jacket temperature (°C),OPC LED temperature (°C),internal box temperature (°C),relative humidity of the measurement (%),span deviation,mass concentration of particles derived from Lorenz-Mie calculation of OPC scattering (μg/m³),mass concentration of particles derived from Lorenz-Mie calculation of OPC scattering (μg/m³),mass concentration of particles derived from Lorenz-Mie calculation of OPC scattering (μg/m³)
DateTimeUTC,F1_M11,P_M11,Q1_M11,Q2_M11,T1_M11,T2_M11,T3_M11,T4_M11,T5_M11,U1_M11,ZSPAN_M11,X0_M11,X2_M11,X1_M11
2023-10-16 16:00:00,SystemResetWarning,0838.7,4.99,000.00,028.7,027.5,000.0,037.0,030.4,15.2,0000.0,0009.91,0003.65,0003.11
2023-10-16 16:01:00,SystemResetWarning,0838.6,4.99,000.00,028.8,027.5,000.0,037.1,030.4,15.5,0000.0,0009.84,0003.64,0003.11
2023-10-16 16:02:00,SystemResetWarning,0838.7,4.99,000.00,028.8,027.6,000.0,037.1,030.4,15.3,0000.0,0009.62,0003.62,0003.11
2023-10-16 16:03:00,SystemResetWarning,0838.7,5.00,000.00,028.8,027.6,000.0,037.1,030.4,15.3,0000.0,0009.14,0003.56,0003.10
2023-10-16 16:04:00,SystemResetWarning,0838.6,5.00,000.00,028.8,027.6,000.0,037.1,030.4,15.3,0000.0,0009.13,0003.50,0003.05
2023-10-16 16:05:00,SystemResetWarning,0838.6,5.01,000.00,028.8,027.6,000.0,037.1,030.5,15.1,0000.0,0009.14,0003.45,0003.03
2023-10-16 16:06:00,SystemResetWarning,0838.6,5.00,000.00,028.8,027.6,000.0,037.2,030.5,15.2,0000.0,0009.19,0003.43,0003.03
2023-10-16 16:07:00,SystemResetWarning,0838.7,5.01,000.00,028.8,027.7,000.0,037.2,030.5,15.1,0000.0,0008.64,0003.44,0003.02
2023-10-16 16:08:00,SystemResetWarning,0838.6,5.00,000.00,028.9,027.7,000.0,037.2,030.5,14.9,0000.0,0008.51,0003.48,0003.02
2023-10-16 16:09:00,SystemResetWarning,0838.6,5.01,000.00,028.9,027.7,000.0,037.2,030.5,14.8,0000.0,0007.87,0003.43,0003.03
2023-10-16 16:10:00,SystemResetWarning,0838.6,4.98,000.00,028.9,027.7,000.0,037.2,030.6,15.1,0000.0,0007.55,0003.36,0003.03
2023-10-16 16:11:00,SystemResetWarning,0838.6,5.01,000.00,028.9,027.7,000.0,037.2,030.6,15.1,0000.0,0007.53,0003.35,0003.02
2023-10-16 16:12:00,SystemResetWarning,0838.6,5.02,000.00,028.9,027.7,000.0,037.2,030.6,15.0,0000.0,0007.53,0003.36,0003.02
2023-10-16 16:13:00,SystemResetWarning,0838.6,4.98,000.00,028.9,027.8,000.0,037.3,030.6,15.2,0000.0,0007.48,0003.38,0003.05
2023-10-16 16:14:00,SystemResetWarning,0838.6,5.00,000.00,029.0,027.8,000.0,037.3,030.6,15.2,0000.0,0007.43,0003.38,0003.08
2023-10-16 16:15:00,SystemResetWarning,0838.6,5.01,000.00,029.0,027.8,000.0,037.3,030.6,15.3,0000.0,0006.64,0003.43,0003.11
2023-10-16 16:16:00,SystemResetWarning,0838.5,5.00,000.00,029.0,027.8,000.0,037.3,030.7,15.2,0000.0,0006.58,0003.43,0003.13
2023-10-16 16:17:00,SystemResetWarning,0838.6,4.99,000.00,029.0,027.8,000.0,037.3,030.7,15.2,0000.0,0005.89,0003.43,0003.14
2023-10-16 16:18:00,SystemResetWarning,0838.6,4.99,000.00,029.0,027.8,000.0,037.4,030.7,14.9,0000.0,0005.89,0003.43,0003.13
2023-10-16 16:19:00,SystemResetWarning,0838.6,5.00,000.00,029.0,027.9,000.0,037.4,030.7,14.4,0000.0,0007.93,0003.44,0003.14
2023-10-16 16:20:00,SystemResetWarning,0838.6,5.01,000.00,029.1,027.9,000.0,037.4,030.7,14.5,0000.0,0008.36,0003.47,0003.14
2023-10-16 16:21:00,SystemResetWarning,0838.6,5.01,000.00,029.1,027.9,000.0,037.4,030.7,14.5,0000.0,0008.26,0003.48,0003.14
2023-10-16 16:22:00,SystemResetWarning,0838.6,5.00,000.00,029.1,027.9,000.0,037.4,030.8,14.5,0000.0,0008.39,0003.52,0003.14
2023-10-16 16:23:00,SystemResetWarning,0838.6,4.99,000.00,029.1,028.0,000.0,037.4,030.8,14.4,0000.0,0008.43,0003.53,0003.15
2023-10-16 16:24:00,SystemResetWarning,0838.6,4.98,000.00,029.1,028.0,000.0,037.5,030.8,14.4,0000.0,0009.10,0003.54,0003.16
2023-10-16 16:25:00,SystemResetWarning,0838.6,5.00,000.00,029.2,028.0,000.0,037.5,030.8,14.2,0000.0,0009.15,0003.57,0003.16
2023-10-16 16:26:00,SystemResetWarning,0838.6,5.01,000.00,029.2,028.0,000.0,037.5,030.8,14.5,0000.0,0009.24,0003.62,0003.17
2023-10-16 16:27:00,SystemResetWarning,0838.6,5.01,000.00,029.2,028.0,000.0,037.5,030.8,14.5,0000.0,0009.92,0003.64,0003.18
2023-10-16 16:28:00,SystemResetWarning,0838.6,5.00,000.00,029.2,028.1,000.0,037.5,030.9,14.4,0000.0,0010.06,0003.66,0003.19
2023-10-16 16:29:00,SystemResetWarning,0838.6,5.00,000.00,029.2,028.1,000.0,037.6,030.9,14.6,0000.0,0010.69,0003.67,0003.20
2023-10-16 16:30:00,SystemResetWarning,0838.6,4.99,000.00,029.2,028.1,000.0,037.6,030.9,14.6,0000.0,0009.79,0003.65,0003.22
2023-10-16 16:31:00,SystemResetWarning,0838.5,5.00,000.00,029.3,028.1,000.0,037.6,030.9,14.8,0000.0,0009.20,0003.66,0003.26
2023-10-16 16:32:00,SystemResetWarning,0838.5,5.01,000.00,029.3,028.1,000.0,037.6,030.9,14.7,0000.0,0009.22,0003.69,0003.29
2023-10-16 16:33:00,SystemResetWarning,0838.5,5.01,000.00,029.3,028.1,000.0,037.6,030.9,14.8,0000.0,0009.10,0003.67,0003.31
2023-10-16 16:34:00,SystemResetWarning,0838.4,5.01,000.00,029.3,028.2,000.0,037.6,030.9,14.7,0000.0,0009.57,0003.67,0003.32
2023-10-16 16:35:00,SystemResetWarning,0838.4,4.99,000.00,029.3,028.2,000.0,037.7,031.0,14.7,0000.0,0009.23,0003.69,0003.31
2023-10-16 16:36:00,SystemResetWarning,0838.4,4.99,000.00,029.3,028.2,000.0,037.7,031.0,14.5,0000.0,0009.16,0003.69,0003.31
2023-10-16 16:37:00,SystemResetWarning,0838.4,5.00,000.00,029.4,028.2,000.0,037.7,031.0,14.5,0000.0,0009.37,0003.68,0003.30
2023-10-16 16:38:00,SystemResetWarning,0838.4,5.01,000.00,029.4,028.2,000.0,037.7,031.0,14.5,0000.0,0008.86,0003.68,0003.30
2023-10-16 16:39:00,SystemResetWarning,0838.4,5.00,000.00,029.4,028.3,000.0,037.7,031.0,14.5,0000.0,0008.88,0003.68,0003.30
2023-10-16 16:40:00,SystemResetWarning,0838.4,5.00,000.00,029.4,028.3,000.0,037.7,031.1,14.1,0000.0,0008.68,0003.68,0003.29
2023-10-16 16:41:00,SystemResetWarning,0838.4,5.00,000.00,029.4,028.3,000.0,037.7,031.1,14.6,0000.0,0008.20,0003.67,0003.28
2023-10-16 16:42:00,SystemResetWarning,0838.3,5.00,000.00,029.4,028.3,000.0,037.8,031.1,14.6,0000.0,0008.42,0003.62,0003.23
2023-10-16 16:43:00,SystemResetWarning,0838.4,5.00,000.00,029.5,028.3,000.0,037.8,031.1,14.8,0000.0,0008.38,0003.56,0003.18
2023-10-16 16:44:00,SystemResetWarning,0838.3,4.99,000.00,029.5,028.3,000.0,037.8,031.1,14.7,0000.0,0008.88,0003.59,0003.18
2023-10-16 16:45:00,SystemResetWarning,0838.3,5.00,000.00,029.5,028.4,000.0,037.8,031.1,14.5,0000.0,0008.89,0003.58,0003.16
2023-10-16 16:46:00,SystemResetWarning,0838.3,5.01,000.00,029.5,028.4,000.0,037.8,031.2,14.4,0000.0,0008.58,0003.54,0003.16
2023-10-16 16:47:00,SystemResetWarning,0838.3,5.00,000.00,029.5,028.4,000.0,037.9,031.2,14.3,0000.0,0008.93,0003.53,0003.14
2023-10-16 16:48:00,SystemResetWarning,0838.3,5.01,000.00,029.5,028.4,000.0,037.9,031.2,14.1,0000.0,0009.26,0003.50,0003.13
2023-10-16 16:49:00,SystemResetWarning,0838.2,5.00,000.00,029.6,028.4,000.0,037.9,031.2,14.2,0000.0,0009.25,0003.47,0003.10
2023-10-16 16:50:00,SystemResetWarning,0838.2,5.00,000.00,029.6,028.4,000.0,037.9,031.2,14.2,0000.0,0008.96,0003.44,0003.09
2023-10-16 16:51:00,SystemResetWarning,0838.2,4.99,000.00,029.6,028.4,000.0,037.9,031.3,14.2,0000.0,0008.99,0003.47,0003.07
2023-10-16 16:52:00,SystemResetWarning,0838.1,4.99,000.00,029.6,027.0,000.0,037.9,031.2,14.1,0000.0,0009.08,0003.47,0003.07
2023-10-16 16:53:00,SystemResetWarning,0838.2,5.00,000.00,029.5,025.2,000.0,037.8,030.9,14.1,0000.0,0008.69,0003.45,0003.06
2023-10-16 16:54:00,SystemResetWarning,0838.2,5.01,000.00,029.4,024.8,000.0,037.7,030.8,14.2,0000.0,0008.66,0003.46,0003.04
2023-10-16 16:55:00,SystemResetWarning,0838.2,5.01,000.00,029.3,025.1,000.0,037.7,030.5,14.7,0000.0,0008.15,0003.41,0003.02
2023-10-16 16:56:00,SystemResetWarning,0838.2,4.99,000.00,029.1,025.4,000.0,037.7,030.5,14.8,0000.0,0007.64,0003.39,0002.99
2023-10-16 16:57:00,SystemResetWarning,0838.2,5.01,000.00,029.1,025.8,000.0,037.7,030.5,14.7,0000.0,0008.99,0003.37,0002.96
2023-10-16 16:58:00,SystemResetWarning,0838.2,5.00,000.00,029.1,026.2,000.0,037.7,030.5,14.8,0000.0,0008.73,0003.36,0002.95
2023-10-16 16:59:00,SystemResetWarning,0838.2,5.00,000.00,029.0,026.5,000.0,037.7,030.5,15.0,0000.0,0008.14,0003.35,0002.92
